Location: Asheville, NC
(35.6000°N, 82.5500°W)
Time: 08:48:27
(UTC-05:00)

Tiangong 2 - Pass Details

Date: 13 February 2018
Orbit: 384 x 388 km, 42.8° (Epoch: 20 February)

Event Time Altitude Azimuth Distance (km) Brightness Sun altitude
Rises 20:22:13 0° 288° (WNW) 2,257 6.1 -27.4°
Reaches altitude 10° 20:24:36 10° 305° (NW) 1,403 4.6 -27.9°
Enters shadow 20:25:02 12° 310° (NW) 1,272 4.3 -27.9°
